Location: Unspecified
(33.9239°N, 118.0544°W)
Time: 04:11:03
(UTC-07:00)

Resurs 1-4 Rocket - Visible Passes

Search period start: 30 July 2016 00:00
Search period end: 09 August 2016 00:00
Orbit: 800 x 814 km, 98.4° (Epoch: 29 July)

Date Brightness Start Highest point End Pass type
(mag) Time Alt. Az. Time Alt. Az. Time Alt. Az.
30 Jul 4.3 02:26:30 10° NE 02:29:41 16° E 02:29:56 16° E visible
30 Jul 2.4 04:04:40 10° N 04:09:44 50° WNW 04:11:01 41° WSW visible
31 Jul 2.0 03:40:00 10° NNE 03:45:17 88° W 03:46:06 65° SSW visible
01 Aug 2.5 03:15:36 10° NNE 03:20:43 53° E 03:21:12 51° ESE visible
01 Aug 3.8 04:56:55 10° NNW 05:00:05 16° WNW 05:02:17 13° W visible
02 Aug 3.5 02:51:32 10° NE 02:56:06 30° E 02:56:17 30° E visible
02 Aug 3.2 04:31:25 10° NNW 04:35:48 28° WNW 04:37:22 24° W visible
03 Aug 4.2 02:28:04 10° NE 02:31:22 17° E 02:31:22 17° E visible
03 Aug 2.4 04:06:24 10° N 04:11:25 47° WNW 04:12:28 42° WSW visible
04 Aug 1.9 03:41:41 10° N 03:46:58 84° WNW 03:47:33 71° SSW visible
05 Aug 2.5 03:17:16 10° NNE 03:22:26 55° E 03:22:38 55° ESE visible
05 Aug 3.8 04:58:45 10° NNW 05:01:45 16° WNW 05:03:42 13° W visible
06 Aug 3.4 02:53:10 10° NE 02:57:43 31° E 02:57:43 31° E visible
06 Aug 3.2 04:33:10 10° NNW 04:37:28 26° WNW 04:38:48 24° W visible
07 Aug 4.2 02:29:37 10° NE 02:32:49 18° E 02:32:49 18° E visible
07 Aug 2.4 04:08:06 10° N 04:13:06 45° WNW 04:13:53 42° W visible
08 Aug 1.9 03:43:24 10° N 03:48:39 80° WNW 03:48:58 76° WSW visible
